Weather History for KSSI - January, 2014

Change the Weather History Date:

Tuesday, January 21, 2014

  Actual Average Record
Temperature  
Mean Temperature 56 °F 52 °F  
Max Temperature 69 °F 61 °F 79 °F (1974)
Min Temperature 43 °F 43 °F 6 °F (1985)
Degree Days  
Heating Degree Days 9 14  
Month to date heating degree days 310 294  
Since 1 July heating degree days 729 825  
Cooling Degree Days 0 0  
Month to date cooling degree days 0 0  
Year to date cooling degree days 0 0  
Growing Degree Days 7 (Base 50)    
Moisture  
Dew Point 43 °F    
Average Humidity 70    
Maximum Humidity 100    
Minimum Humidity 39    
Precipitation  
Precipitation T in 0.11 in 3.88 in (1983)
Month to date precipitation 3.56 2.06  
Year to date precipitation 3.56 2.06  
Snow  
Snow 0.00 in - 0.00 in ()
Month to date snowfall 0.0  
Since 1 July snowfall 0.0  
Snow Depth 0.00 in    
Sea Level Pressure  
Sea Level Pressure 29.83 in    
Wind  
Wind Speed 12 mph (WSW)    
Max Wind Speed 22 mph    
Max Gust Speed 35 mph    
Visibility 10 miles    
Events Rain    
T = Trace of Precipitation, MM = Missing Value Source: NWS Daily Summary

Daily Weather History Graph

Daily Weather History Graph

Search for Another Location

Airport or City:

Trip Planner

Search our weather history database for the weather conditions in past years. The results will help you decide how hot, cold, wet, or windy it might be!

Date:

Astronomy

Jan. 21, 2014 Rise Set
Actual Time 7:23 AM EST 5:51 PM EST
Civil Twilight 6:57 AM EST 6:16 PM EST
Nautical Twilight 6:27 AM EST 6:46 PM EST
Astronomical Twilight 5:58 AM EST 7:15 PM EST
Moon 10:58 PM EST (1/21) 10:14 AM EST (1/21)
Length of Visible Light 11h 19m
Length of Day
10h 28m
Waning Gibbous, 75% of the Moon is Illuminated
Jan 21
Waning Gibbous
Jan 24
Last Quarter
Jan 30
New
Feb 6
First Quarter
Feb 14
Full

Hourly Weather History & Observations

Time (EST) Temp. Windchill Dew Point Humidity Pressure Visibility Wind Dir Wind Speed Gust Speed Precip Events Conditions
12:53 AM 48.9 °F - 41.0 °F 74% 29.96 in 10.0 mi SW 10.4 mph - N/A   Clear
1:53 AM 48.9 °F - 44.1 °F 83% 29.94 in 10.0 mi SW 10.4 mph - N/A   Clear
2:53 AM 48.9 °F - 45.0 °F 86% 29.93 in 10.0 mi SW 9.2 mph - N/A   Clear
3:53 AM 48.9 °F - 46.0 °F 90% 29.90 in 10.0 mi SW 9.2 mph - N/A   Clear
4:53 AM 46.9 °F - 45.0 °F 93% 29.91 in 10.0 mi WSW 6.9 mph - N/A   Clear
5:53 AM 45.0 °F 41.2 °F 44.1 °F 97% 29.91 in 10.0 mi WSW 6.9 mph - N/A   Clear
6:53 AM 46.0 °F 42.5 °F 45.0 °F 96% 29.89 in 10.0 mi WSW 6.9 mph - N/A   Clear
7:53 AM 46.9 °F - 45.0 °F 93% 29.88 in 10.0 mi WSW 6.9 mph - N/A   Clear
8:53 AM 50.0 °F - 45.0 °F 83% 29.87 in 10.0 mi WSW 9.2 mph - N/A   Clear
9:53 AM 54.0 °F - 45.0 °F 72% 29.86 in 10.0 mi SW 11.5 mph - N/A   Scattered Clouds
10:04 AM 55.0 °F - 45.0 °F 69% 29.86 in 10.0 mi WSW 8.1 mph - N/A   Mostly Cloudy
10:25 AM 57.9 °F - 46.9 °F 67% 29.85 in 10.0 mi WSW 9.2 mph - N/A   Scattered Clouds
10:53 AM 61.0 °F - 50.0 °F 67% 29.84 in 10.0 mi WSW 15.0 mph - N/A   Clear
11:53 AM 61.0 °F - 53.1 °F 75% 29.79 in 10.0 mi WSW 13.8 mph 26.5 mph N/A   Mostly Cloudy
12:28 PM 63.0 °F - 54.0 °F 72% 29.76 in 10.0 mi WSW 13.8 mph 21.9 mph N/A   Mostly Cloudy
12:53 PM 66.0 °F - 54.0 °F 65% 29.73 in 10.0 mi West 12.7 mph 19.6 mph N/A   Mostly Cloudy
1:53 PM 69.1 °F - 53.1 °F 57% 29.68 in 10.0 mi WSW 19.6 mph 25.3 mph N/A   Clear
2:53 PM 68.0 °F - 53.1 °F 59% 29.66 in 10.0 mi WSW 13.8 mph - 0.00 in   Mostly Cloudy
3:53 PM 64.0 °F - 51.1 °F 63% 29.67 in 10.0 mi West 16.1 mph 31.1 mph 0.00 in Rain Light Rain
4:53 PM 62.1 °F - 48.0 °F 60% 29.69 in 10.0 mi West 11.5 mph - 0.00 in   Partly Cloudy
5:53 PM 60.1 °F - 45.0 °F 57% 29.71 in 10.0 mi West 15.0 mph 24.2 mph N/A   Mostly Cloudy
6:53 PM 57.0 °F - 30.9 °F 37% 29.77 in 10.0 mi WNW 19.6 mph 32.2 mph 0.00 in Rain Light Rain
7:53 PM 54.0 °F - 28.0 °F 37% 29.81 in 10.0 mi NW 19.6 mph 35.7 mph 0.00 in   Clear
8:53 PM 50.0 °F - 26.1 °F 39% 29.84 in 10.0 mi WNW 9.2 mph - 0.00 in   Clear
9:53 PM 48.0 °F - 24.1 °F 39% 29.87 in 10.0 mi WNW 11.5 mph 25.3 mph 0.00 in   Clear
10:53 PM 46.0 °F 41.0 °F 24.1 °F 42% 29.90 in 10.0 mi WNW 10.4 mph 17.3 mph N/A   Clear
11:53 PM 44.1 °F 40.1 °F 24.1 °F 45% 29.90 in 10.0 mi West 6.9 mph - N/A   Clear